Location: Aniagüita
(10.0946°N, 66.9708°W)
Time: 21:53:52
(UTC+00:00)

Hubble Space Telescope - Pass Details

Date: 30 June 2022
Orbit: 532 x 535 km, 28.5° (Epoch: 16 August)

Event Time Altitude Azimuth Distance (km) Brightness Sun altitude
Rises 23:24:59 0° 321° (NW) 2,656 5.6 -8.0°
Reaches altitude 10° 23:28:28 10° 352° (N) 1,766 3.9 -8.8°
Maximum altitude 23:30:13 12° 18° (NNE) 1,617 3.3 -9.2°
Drops below altitude 10° 23:31:58 10° 43° (NE) 1,765 3.2 -9.6°
Enters shadow 23:34:22 - 67° (ENE) 2,328 3.6 -10.1°
